Bay City, TX

6:31 PM CDT on May 22, 2017 (GMT -0500)
Bay City

Weather History for KBYY - November, 2013

Change the Weather History Date:

Sunday, November 24, 2013

  Actual Average (KLBX) Record (KLBX)
Temperature  
Mean Temperature 48 °F -  
Max Temperature 50 °F 67 °F 82 °F (2010)
Min Temperature 45 °F 50 °F 37 °F (2003)
Degree Days  
Heating Degree Days 18    
Moisture  
Dew Point 37 °F    
Average Humidity 66    
Maximum Humidity 84    
Minimum Humidity 54    
Precipitation  
Precipitation 0.00 in - - ()
Sea Level Pressure  
Sea Level Pressure 30.34 in    
Wind  
Wind Speed 10 mph (NNE)    
Max Wind Speed 15 mph    
Max Gust Speed 22 mph    
Visibility 10 miles    
Events      
Averages and records for this station are not official NWS values.
T = Trace of Precipitation, MM = Missing Value Source: NWS Daily Summary

Daily Weather History Graph

Daily Weather History Graph

Search for Another Location

Airport or City:

Trip Planner

Search our weather history database for the weather conditions in past years. The results will help you decide how hot, cold, wet, or windy it might be!

Date:

Astronomy

Nov. 24, 2013 Rise Set
Actual Time 6:54 AM CST 5:26 PM CST
Civil Twilight 6:28 AM CST 5:51 PM CST
Nautical Twilight 5:59 AM CST 6:20 PM CST
Astronomical Twilight 5:31 AM CST 6:49 PM CST
Moon 11:37 PM CST (11/24) 11:55 AM CST (11/24)
Length of Visible Light 11h 22m
Length of Day
10h 31m
Waning Gibbous, 60% of the Moon is Illuminated
Nov 24
Waning Gibbous
Nov 25
Last Quarter
Dec 2
New
Dec 9
First Quarter
Dec 17
Full

Hourly Weather History & Observations

Time (CST) Temp. Windchill Dew Point Humidity Pressure Visibility Wind Dir Wind Speed Gust Speed Precip Events Conditions
12:15 AM 49.5 °F - 44.8 °F 84% 30.34 in 10.0 mi NNE 12.7 mph 19.6 mph N/A   Overcast
12:35 AM 49.3 °F - 44.2 °F 83% 30.34 in 10.0 mi NNE 10.4 mph 19.6 mph N/A   Overcast
12:55 AM 49.1 °F - 43.7 °F 82% 30.33 in 10.0 mi NNE 15.0 mph 21.9 mph N/A   Overcast
1:15 AM 49.1 °F - 43.2 °F 80% 30.34 in 10.0 mi NNE 10.4 mph - N/A   Overcast
1:35 AM 49.1 °F - 42.6 °F 78% 30.35 in 10.0 mi NNE 10.4 mph 18.4 mph N/A   Overcast
1:55 AM 48.7 °F - 42.1 °F 78% 30.34 in 10.0 mi North 9.2 mph 16.1 mph N/A   Overcast
2:15 AM 48.6 °F - 41.9 °F 78% 30.34 in 10.0 mi NNE 8.1 mph - N/A   Overcast
2:35 AM 48.4 °F - 41.0 °F 76% 30.33 in 10.0 mi NNE 13.8 mph 17.3 mph N/A   Overcast
2:55 AM 48.4 °F - 39.9 °F 73% 30.32 in 10.0 mi NNE 12.7 mph 18.4 mph N/A   Overcast
3:15 AM 48.4 °F - 39.7 °F 72% 30.32 in 10.0 mi NNE 11.5 mph 19.6 mph N/A   Overcast
3:35 AM 48.4 °F - 39.4 °F 71% 30.32 in 10.0 mi NNE 15.0 mph 18.4 mph N/A   Overcast
3:55 AM 48.2 °F - 39.0 °F 71% 30.33 in 10.0 mi NE 11.5 mph 16.1 mph N/A   Overcast
4:15 AM 48.4 °F - 38.5 °F 69% 30.33 in 10.0 mi NNE 11.5 mph 18.4 mph N/A   Overcast
4:35 AM 48.2 °F - 38.1 °F 68% 30.33 in 10.0 mi NNE 11.5 mph 16.1 mph N/A   Overcast
4:55 AM 48.0 °F - 37.2 °F 66% 30.34 in 10.0 mi NE 10.4 mph - N/A   Overcast
5:15 AM 47.8 °F - 35.8 °F 63% 30.35 in 10.0 mi NNE 10.4 mph 16.1 mph N/A   Overcast
5:35 AM 47.7 °F - 35.4 °F 63% 30.36 in 10.0 mi NNE 8.1 mph - N/A   Overcast
5:55 AM 47.1 °F - 36.0 °F 65% 30.37 in 10.0 mi NNE 6.9 mph - N/A   Drizzle
6:15 AM 46.0 °F 41.0 °F 37.0 °F 71% 30.36 in 10.0 mi North 10.4 mph - N/A   Overcast
6:35 AM 45.9 °F 41.2 °F 36.1 °F 69% 30.37 in 10.0 mi NNE 9.2 mph 17.3 mph N/A   Overcast
6:55 AM 46.4 °F 41.5 °F 35.6 °F 66% 30.37 in 10.0 mi NNE 10.4 mph - N/A   Overcast
7:15 AM 46.6 °F - 34.9 °F 64% 30.36 in 10.0 mi NNE 9.2 mph - N/A   Overcast
7:35 AM 46.9 °F - 34.2 °F 61% 30.37 in 10.0 mi NNE 11.5 mph 17.3 mph N/A   Overcast
7:55 AM 47.3 °F - 34.0 °F 60% 30.38 in 10.0 mi NNE 10.4 mph 16.1 mph N/A   Overcast
8:15 AM 47.3 °F - 34.0 °F 60% 30.39 in 10.0 mi NNE 11.5 mph 18.4 mph N/A   Overcast
8:35 AM 46.9 °F - 35.6 °F 65% 30.38 in 10.0 mi NNE 9.2 mph - N/A   Light Drizzle
8:55 AM 46.9 °F - 36.0 °F 66% 30.38 in 10.0 mi NNE 10.4 mph 17.3 mph N/A   Overcast
9:15 AM 47.7 °F - 35.1 °F 62% 30.37 in 10.0 mi NE 13.8 mph - N/A   Overcast
9:35 AM 48.6 °F - 34.3 °F 58% 30.38 in 10.0 mi NNE 11.5 mph 17.3 mph N/A   Overcast
9:55 AM 48.7 °F - 34.3 °F 58% 30.38 in 10.0 mi NNE 11.5 mph - N/A   Overcast
10:15 AM 49.1 °F - 34.5 °F 57% 30.39 in 10.0 mi NNE 10.4 mph 16.1 mph N/A   Overcast
10:35 AM 49.3 °F - 34.3 °F 56% 30.39 in 10.0 mi NNE 8.1 mph - N/A   Overcast
10:55 AM 49.3 °F - 34.2 °F 56% 30.39 in 10.0 mi North 10.4 mph - N/A   Overcast
11:15 AM 49.3 °F - 33.8 °F 55% 30.39 in 10.0 mi North 6.9 mph - N/A   Overcast
11:35 AM 49.3 °F - 33.8 °F 55% 30.38 in 10.0 mi NE 9.2 mph 16.1 mph N/A   Overcast
11:55 AM 49.5 °F - 33.8 °F 55% 30.38 in 10.0 mi NNE 8.1 mph - N/A   Overcast
12:15 PM 49.5 °F - 34.0 °F 55% 30.37 in 10.0 mi NNE 6.9 mph - N/A   Overcast
12:35 PM 49.6 °F - 34.0 °F 55% 30.36 in 10.0 mi North 6.9 mph - N/A   Overcast
12:55 PM 50.0 °F - 34.0 °F 54% 30.35 in 10.0 mi North 5.8 mph - N/A   Overcast
1:15 PM 50.0 °F - 34.7 °F 56% 30.34 in 10.0 mi North 5.8 mph - N/A   Overcast
1:35 PM 50.0 °F - 35.4 °F 57% 30.33 in 10.0 mi NNE 6.9 mph - N/A   Overcast
1:55 PM 50.4 °F - 35.2 °F 56% 30.32 in 10.0 mi North 9.2 mph - N/A   Overcast
2:15 PM 50.2 °F - 35.2 °F 57% 30.32 in 10.0 mi NNE 9.2 mph - N/A   Overcast
2:35 PM 50.0 °F - 35.6 °F 58% 30.32 in 10.0 mi North 9.2 mph - N/A   Overcast
2:55 PM 50.0 °F - 35.6 °F 58% 30.32 in 10.0 mi North 8.1 mph - N/A   Overcast
3:15 PM 49.8 °F - 35.8 °F 59% 30.32 in 10.0 mi North 8.1 mph - N/A   Overcast
3:35 PM 49.6 °F - 36.3 °F 60% 30.32 in 10.0 mi North 12.7 mph - N/A   Overcast
3:55 PM 49.1 °F - 36.9 °F 63% 30.31 in 10.0 mi North 11.5 mph - N/A   Overcast
4:15 PM 48.6 °F - 36.3 °F 63% 30.31 in 10.0 mi North 12.7 mph - N/A   Overcast
4:35 PM 48.4 °F - 36.7 °F 64% 30.31 in 10.0 mi North 12.7 mph - N/A   Overcast
4:55 PM 47.5 °F - 37.8 °F 69% 30.31 in 10.0 mi North 10.4 mph - N/A   Overcast
5:15 PM 47.3 °F - 37.4 °F 68% 30.31 in 10.0 mi North 10.4 mph - N/A   Overcast
5:35 PM 47.3 °F - 37.6 °F 69% 30.31 in 10.0 mi North 8.1 mph - N/A   Overcast
5:55 PM 46.6 °F - 39.0 °F 75% 30.32 in 10.0 mi North 10.4 mph - N/A   Overcast
6:15 PM 46.4 °F 41.1 °F 38.3 °F 73% 30.32 in 10.0 mi North 11.5 mph 16.1 mph N/A   Overcast
6:35 PM 46.2 °F 40.5 °F 37.8 °F 72% 30.32 in 10.0 mi North 12.7 mph 17.3 mph N/A   Overcast
6:55 PM 46.2 °F 42.2 °F 37.6 °F 72% 30.32 in 10.0 mi North 8.1 mph - N/A   Overcast
7:15 PM 46.4 °F 41.9 °F 37.6 °F 71% 30.32 in 10.0 mi North 9.2 mph 16.1 mph N/A   Overcast
7:35 PM 46.4 °F 42.9 °F 37.6 °F 71% 30.32 in 10.0 mi NNE 6.9 mph - N/A   Overcast
7:55 PM 46.8 °F - 36.5 °F 67% 30.32 in 10.0 mi NNE 10.4 mph 16.1 mph N/A   Overcast
8:15 PM 46.9 °F - 35.8 °F 65% 30.31 in 10.0 mi NNE 10.4 mph - N/A   Overcast
8:35 PM 46.9 °F - 35.6 °F 65% 30.31 in 10.0 mi NNE 9.2 mph - N/A   Overcast
8:55 PM 46.9 °F - 35.8 °F 65% 30.31 in 10.0 mi NNE 11.5 mph - N/A   Overcast
9:15 PM 46.9 °F - 35.8 °F 65% 30.30 in 10.0 mi NNE 9.2 mph 16.1 mph N/A   Overcast
9:35 PM 46.9 °F - 36.1 °F 66% 30.29 in 10.0 mi NNE 6.9 mph - N/A   Overcast
9:55 PM 47.3 °F - 36.5 °F 66% 30.29 in 10.0 mi NNE 8.1 mph - N/A   Overcast
10:15 PM 47.3 °F - 36.9 °F 67% 30.29 in 10.0 mi NNE 5.8 mph - N/A   Overcast
10:35 PM 47.3 °F - 37.2 °F 68% 30.29 in 10.0 mi NNE 6.9 mph - N/A   Overcast
10:55 PM 47.5 °F - 37.0 °F 67% 30.29 in 10.0 mi NNE 6.9 mph - N/A   Overcast
11:15 PM 47.5 °F - 35.6 °F 63% 30.29 in 10.0 mi NE 10.4 mph - N/A   Overcast
11:35 PM 47.5 °F - 35.4 °F 63% 30.28 in 10.0 mi NNE 5.8 mph - N/A   Overcast
11:55 PM 47.5 °F - 36.3 °F 65% 30.27 in 10.0 mi NNE 6.9 mph - N/A   Overcast